Tracking 23610 objects as of 19-Sep-2021
HD Live streaming from Space Station
objects crossing your sky now

DELTA 1 DEB

Track DELTA 1 DEB now!
10-day predictions


NORAD ID: 12185
Int'l Code: 1978-026AA
Perigee: 787.9 km
Apogee: 926.1 km
Inclination: 99.1 °
Period: 101.9 minutes
Semi major axis: 7227 km
RCS: 0.0609 m2 (small)
Launch date: March 5, 1978
Source: United States (US)
Launch site: AIR FORCE WESTERN TEST RANGE (AFWTR)

Note: This is SATELLITE DEBRIS
aabbcc
Your satellite tracking list
Your tracking list is empty




NASA's NSSDC Master Catalog

Two Line Element Set (TLE):
1 12185U 78026AA  21261.35292174  .00000115  00000-0  82490-4 0  9999
2 12185  99.0926 181.0460 0095650 138.5614 350.1055 14.12784002 84322
Source of the keplerian elements: AFSPC